[[{"header":{"parameterUnit":"m.s-1","parameterCategory":2,"la1":30.2992,"la2":30.254,"lo1":-89.0895,"lo2":-89.0443,"dy":0.0025,"dx":0.0025,"nx":19,"ny":19,"refTime":"2026-05-01T21:00:00:Z","depth":"0","parameterNumber":2,"parameterNumberName":"U-component_of_CURRENTS"},"data":[0,0,0,-0.1124,-0.1124,-0.111,-0.111,-0.1083,-0.1083,0,0,0,0,0,0,0,0,0,0,0,-0.1125,-0.1125,-0.1124,-0.1124,-0.111,-0.111,-0.1083,-0.1083,0,0,0,0,0,0,0,0,0,0,0,-0.1125,-0.1125,-0.1125,-0.1124,-0.111,-0.111,-0.1083,-0.1094,0,0,0,0,0,0,0,0,0,0,-0.1109,-0.1109,-0.1125,-0.1125,-0.1124,-0.111,-0.111,-0.1095,-0.1094,-0.1088,0,-0.1087,0,-0.1088,-0.1081,-0.1081,0,0,0,-0.1118,-0.111,-0.1112,-0.1125,-0.1124,-0.111,-0.1115,-0.1094,-0.1093,-0.1087,-0.1086,-0.1086,-0.1088,-0.1081,-0.1081,-0.1069,-0.1069,0,0,-0.1119,-0.1116,-0.1113,-0.1111,-0.1121,-0.1115,-0.1114,-0.1093,-0.1089,-0.1086,-0.1085,-0.1087,-0.1081,-0.1081,-0.1069,-0.1069,0,0,0,-0.1125,-0.1117,-0.1119,-0.1112,-0.1112,-0.1115,-0.1114,-0.1089,-0.1092,-0.1085,-0.1087,-0.1081,-0.108,-0.1069,-0.1069,-0.1067,0,0,0,-0.1125,-0.1121,-0.1119,-0.1116,-0.1113,-0.1101,-0.111,-0.1093,-0.1091,-0.1087,-0.1081,-0.108,-0.1069,-0.1069,-0.1067,-0.1068,0,0,0,-0.1125,-0.1121,-0.1121,-0.1116,-0.1114,-0.1102,-0.1102,-0.1092,-0.1092,-0.1081,-0.108,-0.1069,-0.1069,-0.1067,-0.1067,-0.1089,0,0,0,-0.1121,-0.1109,-0.112,-0.1107,-0.1114,-0.1105,-0.1102,-0.109,-0.108,-0.1081,-0.1069,-0.1069,-0.1067,-0.1067,-0.1088,-0.1093,-0.1095,0,0,-0.1102,-0.1106,-0.1099,-0.1109,-0.1095,-0.1107,-0.1095,-0.1082,-0.1081,-0.1074,-0.1074,-0.1067,-0.1067,-0.1088,-0.1098,-0.11,0,0,0,-0.1091,-0.1081,-0.108,-0.1075,-0.108,-0.1085,-0.1079,-0.1083,-0.1078,-0.1077,-0.107,-0.107,-0.1083,-0.1085,-0.1087,-0.11,-0.107,-0.107,-0.1069,-0.1048,-0.1056,-0.104,-0.1047,-0.105,-0.1066,-0.1074,-0.1079,-0.1073,-0.1076,-0.107,-0.1086,-0.1088,-0.1089,-0.1102,-0.1071,-0.1071,-0.1071,-0.1071,-0.1005,-0.0989,-0.101,-0.0996,-0.1021,-0.102,-0.1057,-0.1066,-0.1085,-0.1075,-0.1088,-0.1085,-0.1091,-0.1104,-0.1071,-0.1071,-0.1071,-0.1071,-0.1071,-0.0961,-0.0955,-0.0955,-0.095,-0.0961,-0.0993,-0.1021,-0.1053,-0.1079,-0.1093,-0.1106,-0.1106,-0.1118,-0.11,-0.1101,-0.1101,-0.1101,-0.1101,-0.1101,-0.0912,-0.0915,-0.0896,-0.0902,-0.0906,-0.0935,-0.0999,-0.1034,-0.1089,-0.1108,-0.1108,-0.1125,-0.1096,-0.1095,-0.1102,-0.1102,-0.1102,-0.1102,-0.1102,-0.0841,-0.0852,-0.0827,-0.0824,-0.0844,-0.0863,-0.0947,-0.1037,-0.1087,-0.1117,-0.115,-0.1124,-0.1129,-0.1128,-0.1128,-0.1144,-0.1144,-0.1144,-0.1144,-0.0793,-0.0797,-0.0763,-0.0756,-0.0771,-0.0827,-0.0893,-0.1002,-0.1112,-0.1159,-0.1175,-0.1164,-0.1162,-0.1169,-0.1166,-0.1167,-0.1192,-0.1192,-0.1193,-0.0744,-0.0748,-0.0708,-0.0712,-0.0728,-0.0785,-0.0847,-0.0975,-0.1141,-0.1196,-0.1193,-0.1191,-0.1176,-0.1172,-0.1181,-0.1177,-0.1177,0,0]},{"header":{"parameterUnit":"m.s-1","parameterCategory":2,"la1":30.2992,"la2":30.254,"lo1":-89.0895,"lo2":-89.0443,"dy":0.0025,"dx":0.0025,"nx":19,"ny":19,"refTime":"2026-05-01T21:00:00:Z","depth":"0","parameterNumber":3,"parameterNumberName":"V-component_of_CURRENTS"},"data":[0,0,0,-0.0526,-0.0525,-0.0461,-0.0461,-0.0417,-0.0416,0,0,0,0,0,0,0,0,0,0,0,-0.0554,-0.0553,-0.0526,-0.0525,-0.0461,-0.0461,-0.0417,-0.0416,0,0,0,0,0,0,0,0,0,0,0,-0.0554,-0.0553,-0.0553,-0.0525,-0.0461,-0.0461,-0.0417,-0.0454,0,0,0,0,0,0,0,0,0,0,-0.0511,-0.0533,-0.0553,-0.0553,-0.0524,-0.0461,-0.0461,-0.0455,-0.0452,-0.0458,0,-0.0454,0,-0.0436,-0.0415,-0.0415,0,0,0,-0.0519,-0.0535,-0.0519,-0.0553,-0.0524,-0.0461,-0.0488,-0.0453,-0.0449,-0.0454,-0.0454,-0.0451,-0.0435,-0.0415,-0.0415,-0.0408,-0.0408,0,0,-0.0522,-0.0539,-0.0522,-0.0517,-0.0516,-0.049,-0.0486,-0.045,-0.045,-0.0453,-0.045,-0.0434,-0.0415,-0.0414,-0.0408,-0.0408,0,0,0,-0.0537,-0.0542,-0.0525,-0.0519,-0.0505,-0.0489,-0.0484,-0.0452,-0.0447,-0.0449,-0.0434,-0.0414,-0.0414,-0.0408,-0.0408,-0.0435,0,0,0,-0.0538,-0.055,-0.0527,-0.0536,-0.0506,-0.0472,-0.0487,-0.0449,-0.0444,-0.0434,-0.0414,-0.0414,-0.0408,-0.0408,-0.0434,-0.0456,0,0,0,-0.0555,-0.0552,-0.0547,-0.0538,-0.0512,-0.0472,-0.0464,-0.0447,-0.0435,-0.0415,-0.0414,-0.0408,-0.0408,-0.0433,-0.0454,-0.0471,0,0,0,-0.057,-0.0567,-0.0548,-0.0539,-0.0513,-0.0483,-0.0464,-0.0439,-0.0423,-0.0414,-0.0408,-0.0408,-0.0433,-0.0452,-0.0469,-0.053,-0.054,0,0,-0.0574,-0.0568,-0.0562,-0.0543,-0.0525,-0.0491,-0.0476,-0.0447,-0.043,-0.0421,-0.042,-0.0434,-0.0454,-0.047,-0.0544,-0.0554,0,0,0,-0.0568,-0.0565,-0.0556,-0.0541,-0.0515,-0.0502,-0.0465,-0.0454,-0.0439,-0.0422,-0.0432,-0.0443,-0.0453,-0.0486,-0.0494,-0.0561,-0.0409,-0.0409,-0.0409,-0.0592,-0.0575,-0.0571,-0.0552,-0.0538,-0.0507,-0.0497,-0.0478,-0.0454,-0.0454,-0.0463,-0.0492,-0.0528,-0.0535,-0.0602,-0.0455,-0.0455,-0.0455,-0.0455,-0.0602,-0.0601,-0.059,-0.0581,-0.0569,-0.0558,-0.0533,-0.0516,-0.0509,-0.0485,-0.0493,-0.0511,-0.0546,-0.0614,-0.0457,-0.0456,-0.0456,-0.0456,-0.0456,-0.062,-0.062,-0.0614,-0.0613,-0.0615,-0.0594,-0.0609,-0.0576,-0.0544,-0.055,-0.058,-0.058,-0.0642,-0.055,-0.055,-0.055,-0.055,-0.055,-0.055,-0.0643,-0.0638,-0.065,-0.0647,-0.0658,-0.0667,-0.0652,-0.0652,-0.0641,-0.0623,-0.0623,-0.067,-0.0521,-0.052,-0.0553,-0.0553,-0.0552,-0.0552,-0.0552,-0.0657,-0.0662,-0.0683,-0.0698,-0.0728,-0.0783,-0.0755,-0.0778,-0.0759,-0.0769,-0.0791,-0.0659,-0.0658,-0.0652,-0.0654,-0.072,-0.072,-0.072,-0.072,-0.0675,-0.0676,-0.0717,-0.0754,-0.0799,-0.0838,-0.095,-0.0969,-0.0938,-0.0937,-0.0897,-0.0899,-0.0889,-0.09,-0.0889,-0.0895,-0.102,-0.102,-0.1021,-0.0687,-0.0702,-0.0738,-0.0777,-0.0834,-0.0917,-0.1072,-0.1218,-0.1141,-0.1037,-0.098,-0.0968,-0.097,-0.0949,-0.0963,-0.0941,-0.0949,0,0]}],[{"header":{"parameterUnit":"m.s-1","parameterCategory":2,"la1":30.2992,"la2":30.254,"lo1":-89.0895,"lo2":-89.0443,"dy":0.0025,"dx":0.0025,"nx":19,"ny":19,"refTime":"2026-05-01T21:00:00:Z","depth":"2","parameterNumber":2,"parameterNumberName":"U-component_of_CURRENTS"},"data":[0,0,0,-0.1122,-0.1121,-0.1108,-0.1108,-0.1081,-0.1081,0,0,0,0,0,0,0,0,0,0,0,-0.1122,-0.1122,-0.1122,-0.1121,-0.1108,-0.1108,-0.1081,-0.1081,0,0,0,0,0,0,0,0,0,0,0,-0.1122,-0.1122,-0.1122,-0.1121,-0.1108,-0.1108,-0.1081,-0.1092,0,0,0,0,0,0,0,0,0,0,-0.1106,-0.1106,-0.1122,-0.1122,-0.1121,-0.1108,-0.1108,-0.1093,-0.1092,-0.1086,0,-0.1085,0,-0.1087,-0.1079,-0.1079,0,0,0,-0.1116,-0.1107,-0.1109,-0.1122,-0.1121,-0.1108,-0.1112,-0.1092,-0.1091,-0.1085,-0.1085,-0.1084,-0.1086,-0.1079,-0.1079,-0.1068,-0.1068,0,0,-0.1116,-0.1114,-0.111,-0.1108,-0.1118,-0.1113,-0.1112,-0.1091,-0.1087,-0.1084,-0.1083,-0.1086,-0.1079,-0.1079,-0.1068,-0.1068,0,0,0,-0.1122,-0.1114,-0.1116,-0.1109,-0.111,-0.1113,-0.1112,-0.1087,-0.109,-0.1083,-0.1085,-0.1079,-0.1079,-0.1068,-0.1068,-0.1066,0,0,0,-0.1123,-0.1118,-0.1117,-0.1114,-0.111,-0.1099,-0.1108,-0.1091,-0.1089,-0.1085,-0.1079,-0.1079,-0.1068,-0.1068,-0.1066,-0.1066,0,0,0,-0.1122,-0.1118,-0.1118,-0.1114,-0.1112,-0.11,-0.11,-0.109,-0.1091,-0.1079,-0.1079,-0.1068,-0.1068,-0.1066,-0.1066,-0.1087,0,0,0,-0.1118,-0.1106,-0.1118,-0.1105,-0.1112,-0.1103,-0.11,-0.1088,-0.1078,-0.1079,-0.1068,-0.1068,-0.1066,-0.1066,-0.1087,-0.1082,-0.1084,0,0,-0.1099,-0.1104,-0.1096,-0.1107,-0.1093,-0.1104,-0.1093,-0.108,-0.1079,-0.1073,-0.1072,-0.1066,-0.1066,-0.1087,-0.1087,-0.1089,0,0,0,-0.1088,-0.1078,-0.1077,-0.1072,-0.1078,-0.1083,-0.1078,-0.1081,-0.1076,-0.1075,-0.1068,-0.1069,-0.1082,-0.1078,-0.1079,-0.1068,-0.1068,-0.1068,-0.1068,-0.1046,-0.1053,-0.1037,-0.1045,-0.1049,-0.1064,-0.1072,-0.1077,-0.1072,-0.1074,-0.1069,-0.1085,-0.108,-0.1081,-0.107,-0.107,-0.107,-0.107,-0.107,-0.1003,-0.0987,-0.1008,-0.0994,-0.1019,-0.1018,-0.1056,-0.1065,-0.1084,-0.1073,-0.1087,-0.1078,-0.1082,-0.107,-0.107,-0.107,-0.107,-0.107,-0.107,-0.0959,-0.0953,-0.0953,-0.0948,-0.096,-0.0992,-0.1019,-0.1051,-0.1078,-0.1092,-0.1098,-0.1098,-0.1091,-0.1099,-0.1099,-0.1099,-0.1099,-0.1099,-0.11,-0.091,-0.0913,-0.0895,-0.0901,-0.0905,-0.0934,-0.0998,-0.1033,-0.1083,-0.1099,-0.11,-0.1095,-0.1094,-0.1093,-0.1101,-0.1101,-0.11,-0.11,-0.11,-0.084,-0.0851,-0.0826,-0.0823,-0.0843,-0.0853,-0.0943,-0.1029,-0.108,-0.1107,-0.1112,-0.1112,-0.1116,-0.1115,-0.1115,-0.1128,-0.1128,-0.1128,-0.1128,-0.0792,-0.0796,-0.0762,-0.0755,-0.0771,-0.0813,-0.0852,-0.0909,-0.0999,-0.1018,-0.1022,-0.0998,-0.1,-0.0996,-0.0998,-0.0995,-0.0976,-0.0975,-0.0975,-0.0742,-0.0747,-0.0707,-0.0712,-0.0727,-0.0762,-0.0765,-0.0756,-0.0843,-0.0964,-0.0946,-0.1127,-0.1104,-0.1102,-0.1106,-0.1105,-0.1104,0,0]},{"header":{"parameterUnit":"m.s-1","parameterCategory":2,"la1":30.2992,"la2":30.254,"lo1":-89.0895,"lo2":-89.0443,"dy":0.0025,"dx":0.0025,"nx":19,"ny":19,"refTime":"2026-05-01T21:00:00:Z","depth":"2","parameterNumber":3,"parameterNumberName":"V-component_of_CURRENTS"},"data":[0,0,0,-0.0461,-0.046,-0.0398,-0.0397,-0.0353,-0.0353,0,0,0,0,0,0,0,0,0,0,0,-0.0487,-0.0487,-0.0461,-0.0459,-0.0398,-0.0397,-0.0353,-0.0353,0,0,0,0,0,0,0,0,0,0,0,-0.0487,-0.0487,-0.0487,-0.0459,-0.0398,-0.0397,-0.0353,-0.039,0,0,0,0,0,0,0,0,0,0,-0.0444,-0.0466,-0.0487,-0.0487,-0.0459,-0.0398,-0.0397,-0.0391,-0.0387,-0.0393,0,-0.039,0,-0.0371,-0.0351,-0.0351,0,0,0,-0.0453,-0.0469,-0.0453,-0.0487,-0.0458,-0.0398,-0.0424,-0.0388,-0.0385,-0.0388,-0.0389,-0.0386,-0.0371,-0.0351,-0.0351,-0.0343,-0.0343,0,0,-0.0457,-0.0474,-0.0456,-0.0451,-0.0452,-0.0426,-0.0422,-0.0386,-0.0386,-0.0388,-0.0385,-0.037,-0.0351,-0.0351,-0.0343,-0.0343,0,0,0,-0.0471,-0.0476,-0.046,-0.0453,-0.044,-0.0424,-0.042,-0.0388,-0.0383,-0.0384,-0.0369,-0.0351,-0.035,-0.0343,-0.0343,-0.0371,0,0,0,-0.0472,-0.0485,-0.0462,-0.0471,-0.0441,-0.0408,-0.0423,-0.0385,-0.038,-0.0369,-0.0351,-0.035,-0.0343,-0.0343,-0.037,-0.0391,0,0,0,-0.0488,-0.0486,-0.0482,-0.0472,-0.0447,-0.0408,-0.04,-0.0383,-0.0371,-0.0351,-0.035,-0.0342,-0.0343,-0.0369,-0.0389,-0.0406,0,0,0,-0.0504,-0.0501,-0.0483,-0.0474,-0.0448,-0.0419,-0.04,-0.0376,-0.0359,-0.035,-0.0343,-0.0343,-0.0368,-0.0388,-0.0405,-0.0438,-0.0446,0,0,-0.0508,-0.0502,-0.0496,-0.0478,-0.046,-0.0426,-0.0411,-0.0383,-0.0366,-0.0356,-0.0355,-0.037,-0.0389,-0.0406,-0.0451,-0.0459,0,0,0,-0.0502,-0.05,-0.049,-0.0476,-0.045,-0.0436,-0.04,-0.0389,-0.0374,-0.0358,-0.0367,-0.0378,-0.0388,-0.0405,-0.0411,-0.0344,-0.0344,-0.0344,-0.0344,-0.0527,-0.051,-0.0506,-0.0486,-0.0472,-0.0441,-0.0431,-0.0412,-0.0388,-0.0389,-0.0398,-0.0427,-0.0446,-0.0451,-0.039,-0.039,-0.039,-0.039,-0.039,-0.0538,-0.0537,-0.0525,-0.0515,-0.0504,-0.0492,-0.0466,-0.045,-0.0443,-0.042,-0.0428,-0.043,-0.046,-0.0392,-0.0392,-0.0391,-0.0391,-0.0391,-0.0391,-0.0557,-0.0556,-0.0551,-0.0549,-0.0551,-0.053,-0.0544,-0.0511,-0.0479,-0.0484,-0.0497,-0.0497,-0.045,-0.0485,-0.0485,-0.0486,-0.0486,-0.0486,-0.0486,-0.0581,-0.0575,-0.0588,-0.0584,-0.0595,-0.0604,-0.0588,-0.0587,-0.0565,-0.0538,-0.0538,-0.046,-0.0456,-0.0456,-0.0489,-0.0488,-0.0488,-0.0487,-0.0487,-0.0596,-0.0601,-0.0622,-0.0637,-0.0665,-0.0674,-0.068,-0.0692,-0.0678,-0.068,-0.0565,-0.0562,-0.0558,-0.0553,-0.0555,-0.0611,-0.0611,-0.0611,-0.0611,-0.0614,-0.0615,-0.0657,-0.0693,-0.0736,-0.0715,-0.0716,-0.06,-0.0553,-0.0475,-0.048,-0.0449,-0.0449,-0.0435,-0.0432,-0.043,-0.0453,-0.0453,-0.0452,-0.0626,-0.0641,-0.0677,-0.0716,-0.0771,-0.0748,-0.0666,-0.0418,-0.0313,-0.0436,-0.0348,-0.0621,-0.0589,-0.0583,-0.0573,-0.0564,-0.0564,0,0]}],[{"header":{"parameterUnit":"m.s-1","parameterCategory":2,"la1":30.2992,"la2":30.254,"lo1":-89.0895,"lo2":-89.0443,"dy":0.0025,"dx":0.0025,"nx":19,"ny":19,"refTime":"2026-05-01T21:00:00:Z","depth":"4","parameterNumber":2,"parameterNumberName":"U-component_of_CURRENTS"},"data":[0,0,0,-0.0848,-0.0849,-0.0893,-0.0894,-0.0912,-0.0912,0,0,0,0,0,0,0,0,0,0,0,-0.0834,-0.0834,-0.0848,-0.0849,-0.0893,-0.0894,-0.0912,-0.0912,0,0,0,0,0,0,0,0,0,0,0,-0.0834,-0.0834,-0.0835,-0.085,-0.0893,-0.0894,-0.0912,-0.0888,0,0,0,0,0,0,0,0,0,0,-0.085,-0.0843,-0.0834,-0.0835,-0.085,-0.0893,-0.0894,-0.0887,-0.0889,-0.0882,0,-0.0894,0,-0.0903,-0.0913,-0.0913,0,0,0,-0.0848,-0.0841,-0.0853,-0.0835,-0.085,-0.0893,-0.0873,-0.0889,-0.0891,-0.0885,-0.0894,-0.0895,-0.0903,-0.0913,-0.0913,-0.0925,-0.0925,0,0,-0.0845,-0.084,-0.0851,-0.0855,-0.0867,-0.0872,-0.0874,-0.0891,-0.0894,-0.0894,-0.0896,-0.0904,-0.0913,-0.0913,-0.0925,-0.0925,0,0,0,-0.0839,-0.0838,-0.0851,-0.0854,-0.0865,-0.0873,-0.0876,-0.0894,-0.0898,-0.0896,-0.0904,-0.0913,-0.0913,-0.0925,-0.0925,-0.0925,0,0,0,-0.0838,-0.0835,-0.085,-0.0847,-0.0865,-0.0885,-0.0879,-0.0897,-0.0899,-0.0904,-0.0913,-0.0913,-0.0925,-0.0925,-0.0925,-0.0925,0,0,0,-0.0831,-0.0834,-0.0841,-0.0847,-0.0867,-0.0885,-0.0891,-0.0898,-0.0904,-0.0913,-0.0913,-0.0925,-0.0925,-0.0924,-0.0925,-0.0942,0,0,0,-0.0821,-0.0825,-0.0841,-0.0848,-0.0866,-0.0883,-0.0891,-0.0905,-0.0913,-0.0913,-0.0925,-0.0925,-0.0924,-0.0925,-0.0941,-0.084,0,0,0,-0.0816,-0.0824,-0.0827,-0.0842,-0.0852,-0.0877,-0.089,-0.0905,-0.0912,-0.0916,-0.0917,-0.0925,-0.0925,-0.0942,-0.085,0,0,0,0,-0.0818,-0.0819,-0.0825,-0.0838,-0.0857,-0.0879,-0.0898,-0.0909,-0.0923,-0.0919,-0.0928,-0.0928,-0.0939,-0.0878,-0.0926,-0.0926,-0.0926,-0.0926,-0.0926,-0.0793,-0.0806,-0.081,-0.0829,-0.0846,-0.088,-0.0899,-0.0918,-0.0921,-0.093,-0.093,-0.0946,-0.0881,-0.0933,-0.0933,-0.0933,-0.0933,-0.0933,-0.0933,-0.0771,-0.0766,-0.0797,-0.0805,-0.0838,-0.0855,-0.0898,-0.0912,-0.0939,-0.0935,-0.0946,-0.0885,-0.0933,-0.0933,-0.0933,-0.0933,-0.0933,-0.0933,-0.0933,-0.0738,-0.0737,-0.0754,-0.0774,-0.0803,-0.0843,-0.0872,-0.0908,-0.0937,-0.0951,-0.0896,-0.0952,-0.095,-0.096,-0.096,-0.096,-0.096,-0.096,-0.096,-0.069,-0.0708,-0.0712,-0.0742,-0.0758,-0.0793,-0.0859,-0.0883,-0.0926,-0.0887,-0.0954,-0.0955,-0.0954,-0.0952,-0.0961,-0.0961,-0.0961,-0.0961,-0.096,-0.0632,-0.0653,-0.0652,-0.0666,-0.0703,-0.0725,-0.0804,-0.0832,-0.0854,-0.0846,-0.0857,-0.0862,-0.0856,-0.0858,-0.0852,-0.0832,-0.083,-0.0829,0,-0.0591,-0.0601,-0.0601,-0.061,-0.0624,-0.0682,-0.0688,-0.0735,-0.0775,-0.0746,-0.086,-0.0872,-0.0874,-0.0867,-0.0867,-0.0859,0,0,0,-0.0552,-0.0562,-0.0546,-0.0568,-0.0581,-0.062,-0.0685,-0.0675,-0.0764,-0.0759,-0.0797,-0.0806,-0.091,-0.0964,-0.0967,-0.0966,-0.0963,0,0]},{"header":{"parameterUnit":"m.s-1","parameterCategory":2,"la1":30.2992,"la2":30.254,"lo1":-89.0895,"lo2":-89.0443,"dy":0.0025,"dx":0.0025,"nx":19,"ny":19,"refTime":"2026-05-01T21:00:00:Z","depth":"4","parameterNumber":3,"parameterNumberName":"V-component_of_CURRENTS"},"data":[0,0,0,0.0101,0.0101,0.0114,0.0114,0.0105,0.0105,0,0,0,0,0,0,0,0,0,0,0,0.0093,0.0093,0.0101,0.0102,0.0114,0.0114,0.0105,0.0105,0,0,0,0,0,0,0,0,0,0,0,0.0093,0.0093,0.0093,0.0102,0.0114,0.0114,0.0105,0.0102,0,0,0,0,0,0,0,0,0,0,0.0093,0.0089,0.0093,0.0093,0.0102,0.0114,0.0114,0.0102,0.0102,0.0092,0,0.0091,0,0.0099,0.0104,0.0104,0,0,0,0.0102,0.0089,0.0093,0.0093,0.0102,0.0114,0.0109,0.0103,0.0103,0.0092,0.0091,0.0091,0.0098,0.0104,0.0104,0.0084,0.0084,0,0,0.0102,0.0095,0.0093,0.0093,0.0101,0.0108,0.0109,0.0103,0.01,0.0091,0.0091,0.0098,0.0104,0.0104,0.0084,0.0084,0,0,0,0.0099,0.0095,0.0099,0.0093,0.0097,0.0108,0.0109,0.01,0.0102,0.0091,0.0098,0.0104,0.0103,0.0084,0.0084,0.0067,0,0,0,0.0099,0.0093,0.0099,0.0095,0.0097,0.0102,0.0107,0.0102,0.0102,0.0098,0.0104,0.0103,0.0084,0.0084,0.0068,0.005,0,0,0,0.0094,0.0093,0.0093,0.0095,0.01,0.0103,0.0104,0.0103,0.0106,0.0104,0.0103,0.0084,0.0084,0.0068,0.0051,0.0038,0,0,0,0.0088,0.0082,0.0093,0.0088,0.01,0.0103,0.0105,0.0103,0.0101,0.0103,0.0084,0.0084,0.0068,0.0052,0.0039,0.0044,0,0,0,0.0078,0.0081,0.0079,0.0088,0.0087,0.0101,0.0096,0.0092,0.0094,0.0085,0.0085,0.0067,0.0051,0.0038,0.0033,0,0,0,0,0.0074,0.0071,0.0073,0.0074,0.0081,0.008,0.0087,0.0087,0.0079,0.0092,0.0068,0.0059,0.0051,0.0057,0.0083,0.0083,0.0083,0.0083,0.0083,0.0051,0.0058,0.0051,0.0058,0.0057,0.0064,0.0061,0.0062,0.0068,0.0062,0.0046,0.0024,0.003,0.0053,0.0053,0.0053,0.0053,0.0053,0.0053,0.0038,0.0038,0.0035,0.003,0.0029,0.0023,0.0026,0.0031,0.0021,0.0032,0.0026,0.004,0.0051,0.0051,0.0052,0.0052,0.0052,0.0052,0.0052,0.0031,0.0032,0.0023,0.001,-0.0009,-0.001,-0.0033,-0.0023,-0.0006,-0.0013,-0.0008,0.0008,0.0008,-0.0017,-0.0017,-0.0017,-0.0017,-0.0017,-0.0017,0.0032,0.0025,0.0008,-0.0011,-0.0035,-0.006,-0.0071,-0.0071,-0.0053,-0.0036,-0.0025,0.0001,0.0003,0.0004,-0.0019,-0.0019,-0.0019,-0.0019,-0.0018,0.0045,0.0029,0.0005,-0.0021,-0.0077,-0.0101,-0.0114,-0.0101,-0.0102,-0.008,-0.0044,-0.0042,-0.0038,-0.0035,-0.0035,-0.0071,-0.0071,-0.0071,0,0.0049,0.0042,0.0002,-0.0045,-0.01,-0.0126,-0.0137,-0.013,-0.0095,-0.0091,-0.0097,-0.0057,-0.0055,-0.0051,-0.0048,-0.0049,0,0,0,0.0061,0.0044,0.0017,-0.004,-0.0112,-0.013,-0.014,-0.0132,-0.0098,-0.0087,-0.0072,-0.0072,-0.0047,-0.0026,-0.0015,-0.0013,-0.0011,0,0]}]]